Mitchell, SD

2:28 AM CDT on October 15, 2019 (GMT -0500)
Mitchell Municipal

Weather History for KMHE - May, 2019

Change the Weather History Date:

Sunday, May 12, 2019

  Actual Average Record
Temperature  
Mean Temperature 54 °F 58 °F  
Max Temperature 62 °F 70 °F 90 °F (1915)
Min Temperature 46 °F 47 °F 20 °F (1946)
Degree Days  
Heating Degree Days 11 8  
Month to date heating degree days 178 110  
Since 1 July heating degree days 7866 7110  
Cooling Degree Days 0 1  
Month to date cooling degree days 0 9  
Year to date cooling degree days 0 11  
Growing Degree Days 4 (Base 50)    
Moisture  
Dew Point 45 °F    
Average Humidity 72    
Maximum Humidity 93    
Minimum Humidity 51    
Precipitation  
Precipitation 0.00 in 0.07 in 3.05 in (1920)
Month to date precipitation 1.64 0.94  
Year to date precipitation 9.22 4.74  
Snow  
Snow 0.00 in - 0.50 in (1943)
Month to date snowfall 0.0  
Since 1 July snowfall 67.6  
Snow Depth 0.00 in    
Sea Level Pressure  
Sea Level Pressure 29.82 in    
Wind  
Wind Speed 6 mph (South)    
Max Wind Speed 15 mph    
Max Gust Speed 19 mph    
Visibility 10 miles    
Events      
T = Trace of Precipitation, MM = Missing Value Source: NWS Daily Summary

Daily Weather History Graph

Daily Weather History Graph

Search for Another Location

Airport or City:

Astronomy

May. 12, 2019 Rise Set
Actual Time 6:10 AM CDT 8:47 PM CDT
Civil Twilight 5:37 AM CDT 9:20 PM CDT
Nautical Twilight 4:56 AM CDT 10:01 PM CDT
Astronomical Twilight 4:09 AM CDT 10:49 PM CDT
Moon 1:34 PM CDT (5/12) 3:08 AM CDT (5/12)
Length of Visible Light 15h 42m
Length of Day
14h 37m
First Quarter, 58% of the Moon is Illuminated
May 12
First Quarter
May 18
Full
May 26
Last Quarter
Jun 3
New
Jun 10
First Quarter

Hourly Weather History & Observations

Time (CDT) Temp. Windchill Dew Point Humidity Pressure Visibility Wind Dir Wind Speed Gust Speed Precip Events Conditions
12:36 AM 46.9 °F - 44.1 °F 90% 29.79 in 10.0 mi West 6.9 mph - N/A   Mostly Cloudy
12:53 AM 48.0 °F - 44.1 °F 86% 29.79 in 10.0 mi WSW 6.9 mph - N/A   Overcast
1:01 AM 46.9 °F - 44.1 °F 90% 29.78 in 10.0 mi SW 4.6 mph - N/A   Overcast
1:53 AM 48.0 °F - 45.0 °F 89% 29.79 in 10.0 mi WSW 4.6 mph - N/A   Overcast
2:53 AM 48.0 °F - 45.0 °F 89% 29.78 in 10.0 mi WSW 5.8 mph - N/A   Overcast
3:50 AM 46.4 °F 45.2 °F 44.6 °F 93% 29.76 in 10.0 mi SW 3.5 mph - N/A   Scattered Clouds
3:53 AM 46.9 °F - 44.1 °F 90% 29.78 in 10.0 mi SW 3.5 mph - N/A   Scattered Clouds
4:53 AM 48.0 °F - 45.0 °F 89% 29.78 in 10.0 mi SW 3.5 mph - N/A   Overcast
5:32 AM 46.9 °F - 44.1 °F 90% 29.77 in 8.0 mi Calm Calm - N/A   Mostly Cloudy
5:53 AM 46.9 °F - 44.1 °F 90% 29.79 in 8.0 mi WSW 3.5 mph - N/A   Overcast
6:04 AM 46.0 °F 44.8 °F 44.1 °F 93% 29.78 in 8.0 mi WSW 3.5 mph - N/A   Mostly Cloudy
6:53 AM 46.9 °F - 45.0 °F 93% 29.80 in 5.0 mi Calm Calm - N/A   Overcast
7:53 AM 48.9 °F - 46.0 °F 90% 29.81 in 7.0 mi Calm Calm - N/A   Overcast
8:53 AM 50.0 °F - 46.0 °F 86% 29.82 in 8.0 mi East 5.8 mph - N/A   Overcast
9:53 AM 53.1 °F - 46.0 °F 77% 29.82 in 10.0 mi SE 5.8 mph - N/A   Overcast
10:53 AM 54.0 °F - 45.0 °F 72% 29.84 in 10.0 mi North - - N/A   Overcast
11:05 AM 53.1 °F - 46.0 °F 77% 29.83 in 10.0 mi East 9.2 mph - N/A   Overcast
11:53 AM 57.0 °F - 46.0 °F 67% 29.85 in 10.0 mi Variable 5.8 mph - N/A   Overcast
12:05 PM 55.9 °F - 45.0 °F 67% 29.84 in 10.0 mi ESE 8.1 mph - N/A   Overcast
12:13 PM 55.9 °F - 46.0 °F 69% 29.83 in 10.0 mi Variable 6.9 mph - N/A   Overcast
12:53 PM 55.9 °F - 44.1 °F 64% 29.84 in 10.0 mi SE 5.8 mph - N/A   Overcast
1:53 PM 57.9 °F - 43.0 °F 58% 29.85 in 10.0 mi NNE 4.6 mph - N/A   Overcast
2:53 PM 60.1 °F - 43.0 °F 53% 29.85 in 10.0 mi South 3.5 mph - N/A   Mostly Cloudy
3:53 PM 60.1 °F - 45.0 °F 57% 29.85 in 10.0 mi Calm Calm - N/A   Mostly Cloudy
4:53 PM 60.1 °F - 43.0 °F 53% 29.85 in 10.0 mi SW 8.1 mph - N/A   Mostly Cloudy
5:53 PM 61.0 °F - 43.0 °F 52% 29.85 in 10.0 mi Calm Calm - N/A   Clear
6:53 PM 61.0 °F - 46.0 °F 58% 29.85 in 10.0 mi SE 6.9 mph - N/A   Mostly Cloudy
7:53 PM 59.0 °F - 46.9 °F 64% 29.85 in 10.0 mi SE 11.5 mph - N/A   Scattered Clouds
8:53 PM 55.0 °F - 46.0 °F 72% 29.87 in 10.0 mi SE 9.2 mph - N/A   Clear
9:53 PM 53.1 °F - 45.0 °F 74% 29.89 in 10.0 mi SSE 12.7 mph - N/A   Clear
10:53 PM 51.1 °F - 45.0 °F 80% 29.90 in 10.0 mi SSE 9.2 mph - N/A   Clear
11:53 PM 50.0 °F - 44.1 °F 80% 29.89 in 10.0 mi South 9.2 mph - N/A   Clear